Temp
5 5 5 5 5 4 4 3 3 3 3 3 3 3 3 3 3 3 2 2 2 2 2 2 1 1 1 1 1 1 1 1 1 0 0 0 0 0 0 0 -0 -0 -0 -1 -1 -1 -1 -1 -1 -1 -1 -1 -1 -1 -2 -2 -2 -2 -2 -2 -2 -2 -2 -2 -2 -2 -2 -2 -3
5 5 5 4 4 3 3 3 3 3 3 3 3 3 3 3 2 2 2 2 2 2 2 1 1 1 1 1 1 1 1 1 0 0 0 0 0 0 0 -0 -0 -1 -1 -1 -1 -1 -1 -1 -1 -1 -1 -1 -1 -1 -2 -2 -2 -2 -2 -2 -2 -2 -2 -2 -2 -2 -3 -3 -3
5 5 4 4 4 3 3 3 3 3 3 3 3 2 2 2 2 2 2 2 2 2 1 1 1 1 1 1 0 0 0 0 0 0 0 0 0 -0 -0 -0 -1 -1 -1 -1 -1 -1 -1 -1 -1 -1 -1 -1 -1 -1 -2 -2 -2 -2 -2 -2 -2 -2 -2 -2 -2 -3 -3 -3 -3
5 4 4 4 4 3 3 3 3 3 3 3 2 2 2 2 2 2 2 2 2 1 1 1 1 1 0 0 0 0 0 0 0 0 0 0 -0 -0 -0 -1 -1 -1 -1 -1 -1 -1 -2 -2 -2 -2 -2 -2 -2 -2 -2 -2 -2 -2 -2 -2 -2 -2 -2 -3 -3 -3 -3 -3 -3
4 4 4 4 3 3 3 3 3 3 3 2 2 2 2 2 2 2 2 1 1 1 1 1 0 0 0 0 0 0 0 0 0 0 -0 -0 -0 -0 -1 -1 -1 -1 -1 -1 -1 -1 -2 -2 -2 -2 -2 -2 -2 -2 -2 -2 -2 -2 -2 -2 -2 -3 -3 -3 -3 -3 -3 -3 -3
4 3 3 3 3 3 3 3 3 3 2 2 2 2 2 2 1 1 1 1 1 1 1 0 0 -0 -0 -0 -0 -0 -0 -0 -0 -0 -0 -0 -1 -1 -1 -1 -1 -1 -1 -1 -1 -2 -2 -2 -2 -2 -2 -2 -2 -2 -2 -2 -2 -2 -2 -3 -3 -3 -3 -3 -3 -3 -3 -3 -3
3 3 3 3 3 3 3 3 3 2 2 2 2 2 2 2 1 1 1 1 1 1 0 0 0 -0 -0 -0 -0 -0 -0 -0 -1 -1 -1 -1 -1 -1 -1 -1 -1 -1 -1 -1 -2 -2 -2 -2 -2 -2 -2 -2 -2 -2 -2 -3 -3 -3 -3 -3 -3 -3 -3 -3 -3 -3 -3 -3 -3
3 3 3 2 2 3 2 2 2 2 2 2 2 1 1 1 1 1 1 1 0 0 0 0 0 -0 -0 -1 -1 -1 -1 -1 -1 -1 -1 -1 -1 -1 -1 -1 -1 -1 -2 -2 -2 -2 -2 -2 -2 -2 -2 -2 -2 -2 -3 -3 -3 -3 -3 -3 -3 -3 -3 -3 -3 -3 -3 -3 -4
3 3 2 2 2 2 2 2 2 2 2 2 1 1 1 1 0 0 0 0 0 0 0 0 -0 -0 -1 -1 -1 -1 -1 -1 -1 -1 -1 -1 -1 -1 -1 -2 -2 -2 -2 -2 -2 -2 -2 -2 -2 -2 -2 -2 -2 -2 -3 -3 -3 -3 -3 -3 -3 -3 -3 -4 -4 -4 -4 -4 -4
3 3 3 2 2 2 2 2 2 2 2 2 1 1 1 0 0 0 0 0 0 -0 -0 -0 -0 -1 -1 -1 -1 -1 -1 -1 -1 -1 -1 -1 -1 -1 -2 -2 -2 -2 -2 -2 -2 -2 -2 -2 -2 -2 -2 -2 -3 -3 -3 -3 -3 -3 -3 -3 -3 -4 -4 -4 -4 -4 -4 -4 -4
3 3 2 2 2 2 2 2 2 2 2 2 1 1 1 1 0 0 0 -0 -0 -0 -0 -0 -1 -1 -1 -1 -1 -1 -1 -1 -1 -2 -2 -2 -2 -2 -2 -2 -2 -2 -2 -2 -2 -2 -2 -2 -2 -2 -3 -3 -3 -3 -3 -3 -3 -3 -4 -4 -4 -4 -4 -4 -4 -4 -4 -4 -4
3 3 2 2 2 2 2 2 2 2 2 2 1 1 1 1 1 0 -0 -0 -0 -0 -0 -1 -1 -1 -1 -1 -1 -1 -1 -1 -2 -2 -2 -2 -2 -2 -2 -2 -2 -2 -2 -2 -2 -2 -3 -3 -3 -3 -3 -3 -3 -4 -4 -4 -4 -4 -4 -4 -4 -4 -4 -4 -4 -4 -4 -4 -4
3 2 2 2 2 2 2 2 2 2 2 1 1 1 1 1 0 0 -0 -0 -0 -0 -1 -1 -1 -1 -1 -1 -1 -1 -1 -2 -2 -2 -2 -2 -2 -2 -2 -2 -2 -2 -2 -2 -3 -3 -3 -3 -3 -3 -3 -4 -4 -4 -4 -4 -4 -4 -4 -4 -4 -4 -4 -4 -4 -5 -5 -5 -5
2 2 2 2 2 2 2 2 2 2 2 1 1 1 1 1 0 0 -0 -0 -1 -1 -1 -1 -1 -1 -1 -1 -1 -1 -2 -2 -2 -2 -2 -2 -2 -2 -2 -2 -2 -2 -2 -3 -3 -3 -3 -3 -3 -4 -4 -4 -4 -4 -4 -4 -4 -4 -4 -4 -4 -4 -5 -5 -5 -5 -5 -5 -5
2 2 2 2 2 2 2 2 2 2 1 1 1 1 1 0 0 -0 -0 -1 -1 -1 -1 -1 -1 -1 -1 -1 -2 -2 -2 -2 -2 -2 -2 -2 -2 -2 -2 -2 -2 -2 -3 -3 -3 -3 -3 -4 -4 -4 -4 -4 -4 -4 -4 -4 -4 -4 -4 -5 -5 -5 -5 -5 -5 -5 -5 -5 -5
2 2 2 2 2 2 2 2 1 1 1 1 1 1 0 0 0 -0 -1 -1 -1 -1 -1 -1 -1 -1 -2 -2 -2 -2 -2 -2 -2 -2 -2 -2 -2 -2 -2 -2 -2 -3 -3 -3 -3 -3 -3 -4 -4 -4 -4 -4 -4 -4 -4 -4 -5 -5 -5 -5 -5 -5 -5 -5 -5 -5 -5 -5 -6
2 2 2 2 2 2 1 1 1 1 1 1 1 0 0 0 -0 -0 -1 -1 -1 -1 -2 -2 -2 -2 -2 -2 -2 -2 -2 -2 -2 -2 -2 -2 -2 -2 -2 -2 -3 -3 -3 -3 -3 -3 -3 -4 -4 -4 -4 -5 -5 -5 -5 -5 -5 -5 -5 -5 -5 -5 -5 -5 -5 -5 -5 -6 -6
2 2 2 2 2 1 1 1 1 1 1 1 0 0 0 -0 -0 -1 -1 -1 -1 -2 -2 -2 -2 -2 -2 -2 -2 -2 -3 -2 -2 -2 -2 -2 -2 -3 -3 -3 -3 -3 -3 -3 -3 -3 -4 -4 -4 -4 -5 -5 -5 -5 -5 -5 -5 -5 -5 -5 -5 -5 -5 -5 -6 -6 -6 -6 -6
2 2 2 2 2 1 1 1 1 1 1 0 0 0 -0 -0 -1 -1 -1 -1 -2 -2 -2 -2 -2 -2 -2 -2 -3 -3 -3 -3 -3 -3 -3 -3 -3 -3 -3 -3 -3 -3 -3 -3 -3 -4 -4 -4 -4 -5 -5 -5 -5 -5 -5 -5 -5 -5 -5 -5 -5 -5 -6 -6 -6 -6 -6 -6 -6
2 2 2 2 1 1 1 1 1 0 0 0 0 -0 -0 -1 -1 -1 -1 -1 -2 -2 -2 -2 -2 -2 -2 -3 -3 -3 -3 -3 -3 -3 -3 -3 -3 -3 -3 -3 -3 -3 -3 -3 -4 -4 -4 -4 -5 -5 -5 -5 -6 -6 -6 -6 -6 -6 -6 -6 -6 -6 -6 -6 -6 -6 -6 -6 -7
2 2 2 2 1 1 1 1 0 0 0 0 -0 -0 -0 -1 -1 -1 -1 -1 -2 -2 -2 -2 -2 -2 -3 -3 -3 -3 -3 -3 -3 -3 -3 -3 -3 -3 -3 -3 -3 -3 -3 -3 -4 -4 -4 -5 -5 -5 -5 -6 -6 -6 -6 -6 -6 -6 -6 -6 -6 -6 -6 -6 -6 -6 -7 -7 -7
2 2 2 1 1 1 1 0 0 0 0 -0 -0 -0 -1 -1 -1 -1 -1 -2 -2 -2 -2 -2 -2 -3 -3 -3 -3 -3 -3 -3 -3 -3 -3 -3 -3 -3 -3 -3 -3 -3 -3 -3 -4 -4 -5 -5 -5 -5 -5 -6 -6 -6 -6 -6 -7 -7 -7 -7 -7 -6 -6 -6 -6 -7 -7 -7 -7
2 2 1 1 1 1 1 0 0 0 0 -0 -0 -0 -1 -1 -1 -1 -1 -2 -2 -2 -2 -2 -3 -3 -3 -3 -3 -3 -3 -3 -3 -3 -3 -3 -3 -3 -3 -3 -3 -3 -3 -4 -4 -4 -5 -5 -5 -5 -5 -6 -6 -7 -7 -7 -7 -7 -7 -7 -7 -7 -7 -7 -7 -7 -7 -7 -7
2 1 1 1 1 1 1 0 0 0 0 -0 -0 -0 -1 -1 -1 -1 -1 -2 -2 -2 -2 -3 -3 -3 -3 -3 -3 -3 -3 -3 -3 -3 -3 -3 -3 -3 -3 -3 -3 -3 -4 -4 -4 -5 -5 -5 -5 -5 -6 -6 -7 -7 -7 -7 -7 -7 -7 -7 -7 -7 -7 -7 -7 -7 -7 -7 -7
2 1 1 1 1 1 1 1 0 0 0 -0 -0 -1 -1 -1 -1 -1 -1 -2 -2 -2 -2 -3 -3 -3 -3 -3 -3 -3 -3 -3 -3 -3 -3 -3 -3 -3 -3 -3 -3 -4 -4 -4 -5 -5 -5 -5 -5 -6 -6 -6 -7 -7 -7 -7 -7 -7 -7 -8 -8 -7 -7 -7 -7 -7 -7 -7 -7
1 1 1 1 1 1 1 0 0 0 -0 -0 -0 -1 -1 -1 -1 -1 -2 -2 -2 -2 -3 -2 -2 -2 -3 -3 -3 -3 -3 -3 -3 -3 -3 -3 -3 -3 -4 -4 -4 -4 -4 -5 -5 -5 -5 -5 -6 -6 -6 -6 -7 -7 -7 -7 -7 -7 -8 -8 -8 -8 -7 -7 -7 -7 -7 -7 -8
2 1 1 1 1 1 1 0 0 0 -0 -0 -0 -1 -1 -1 -1 -1 -2 -2 -2 -2 -2 -2 -2 -3 -3 -3 -3 -3 -3 -3 -3 -3 -3 -3 -3 -4 -4 -4 -4 -4 -4 -5 -5 -5 -5 -5 -6 -6 -6 -7 -7 -7 -7 -7 -7 -7 -8 -8 -8 -7 -7 -7 -7 -7 -7 -8 -8
2 1 1 1 1 1 1 0 0 0 -0 -0 -1 -1 -1 -1 -1 -2 -2 -2 -2 -2 -2 -2 -2 -2 -3 -3 -2 -2 -2 -3 -3 -3 -3 -3 -4 -4 -4 -4 -4 -4 -4 -5 -5 -5 -5 -6 -6 -6 -6 -7 -7 -7 -7 -7 -7 -7 -8 -8 -8 -7 -7 -7 -7 -7 -8 -8 -8
2 2 1 1 1 1 1 0 0 0 -0 -1 -1 -1 -1 -1 -2 -2 -2 -2 -2 -2 -2 -2 -2 -2 -3 -2 -2 -2 -3 -3 -3 -3 -3 -3 -4 -4 -4 -4 -4 -4 -5 -5 -5 -5 -5 -6 -6 -6 -7 -7 -7 -7 -7 -7 -7 -8 -8 -8 -8 -7 -7 -7 -7 -8 -8 -9 -9
2 1 1 1 1 1 0 0 0 -0 -1 -1 -1 -1 -2 -2 -2 -2 -2 -2 -2 -2 -2 -2 -2 -2 -3 -3 -3 -3 -3 -3 -3 -3 -3 -3 -4 -4 -4 -5 -4 -5 -5 -5 -5 -5 -6 -6 -6 -6 -7 -7 -7 -7 -7 -7 -7 -8 -8 -8 -7 -7 -7 -7 -8 -8 -9 -9 -9
2 1 1 1 1 1 0 0 -0 -0 -1 -1 -2 -2 -2 -2 -2 -2 -2 -2 -2 -2 -2 -2 -2 -2 -3 -3 -3 -3 -3 -3 -3 -3 -3 -4 -4 -4 -4 -5 -5 -5 -5 -5 -5 -6 -6 -6 -6 -7 -7 -7 -7 -7 -7 -7 -7 -8 -8 -8 -7 -7 -8 -8 -8 -9 -9 -9 -10
2 1 1 1 1 1 0 0 -0 -1 -1 -1 -2 -2 -2 -2 -2 -2 -2 -2 -2 -2 -2 -2 -2 -2 -2 -3 -3 -3 -3 -3 -3 -3 -4 -4 -4 -4 -5 -5 -5 -5 -5 -5 -5 -6 -6 -6 -6 -7 -7 -7 -7 -7 -7 -7 -8 -8 -8 -8 -8 -8 -8 -8 -9 -9 -9 -10 -10
1 1 1 1 1 1 0 -0 -0 -1 -1 -2 -2 -2 -2 -2 -2 -2 -2 -2 -2 -2 -2 -2 -2 -2 -3 -3 -3 -3 -3 -3 -4 -4 -4 -4 -4 -5 -5 -5 -5 -5 -5 -5 -6 -6 -6 -6 -7 -7 -7 -7 -7 -7 -7 -8 -8 -8 -8 -8 -8 -8 -8 -9 -9 -9 -10 -10 -10
1 1 1 1 1 0 0 -0 -1 -1 -1 -1 -1 -2 -2 -2 -2 -2 -2 -2 -2 -2 -2 -3 -3 -3 -3 -3 -3 -3 -3 -4 -4 -4 -4 -5 -5 -5 -5 -5 -5 -5 -5 -5 -6 -6 -6 -6 -7 -7 -7 -7 -7 -7 -7 -8 -8 -8 -8 -8 -8 -9 -9 -9 -9 -9 -10 -10 -10
1 1 1 1 0 0 -0 -0 -1 -1 -1 -1 -1 -1 -2 -2 -2 -2 -2 -2 -2 -2 -3 -3 -3 -3 -3 -3 -3 -3 -4 -4 -4 -5 -5 -5 -5 -5 -5 -5 -5 -5 -5 -6 -6 -6 -6 -7 -7 -7 -7 -7 -7 -7 -7 -8 -8 -8 -8 -8 -8 -9 -9 -9 -9 -9 -10 -10 -10
1 1 1 0 0 -0 -0 -1 -1 -1 -1 -1 -1 -1 -2 -2 -2 -2 -2 -2 -2 -2 -3 -3 -3 -3 -3 -3 -3 -3 -4 -4 -4 -5 -5 -5 -5 -5 -6 -5 -5 -6 -6 -6 -6 -6 -6 -7 -7 -7 -7 -7 -7 -7 -7 -8 -8 -8 -8 -8 -9 -9 -9 -9 -9 -9 -10 -10 -10
1 1 1 0 -0 -0 -1 -1 -1 -1 -1 -1 -1 -1 -2 -2 -2 -2 -2 -2 -2 -2 -3 -2 -2 -2 -3 -3 -3 -3 -4 -4 -4 -5 -5 -5 -5 -6 -6 -6 -6 -6 -6 -6 -6 -6 -7 -7 -7 -7 -7 -7 -7 -7 -7 -8 -8 -8 -8 -9 -9 -9 -9 -9 -9 -9 -9 -10 -10
1 1 1 0 -0 -0 -1 -1 -1 -1 -1 -1 -1 -1 -2 -2 -2 -2 -2 -2 -2 -2 -2 -2 -2 -2 -3 -3 -3 -4 -4 -4 -4 -5 -5 -5 -6 -6 -6 -6 -6 -6 -7 -7 -7 -7 -7 -7 -7 -7 -7 -7 -7 -7 -7 -8 -8 -8 -8 -9 -9 -9 -9 -9 -9 -9 -9 -10 -10
1 1 0 0 -0 -0 -1 -1 -1 -1 -1 -1 -1 -1 -2 -2 -2 -2 -2 -2 -2 -3 -3 -3 -3 -3 -3 -3 -3 -4 -4 -4 -4 -5 -5 -5 -6 -6 -6 -6 -6 -6 -7 -7 -7 -7 -7 -7 -7 -7 -7 -7 -7 -7 -7 -8 -8 -8 -9 -9 -9 -9 -9 -9 -9 -9 -9 -10 -10
1 0 0 -0 -0 -0 -1 -1 -1 -1 -1 -1 -1 -1 -2 -2 -2 -2 -2 -2 -3 -3 -3 -3 -3 -3 -3 -3 -4 -4 -4 -4 -4 -5 -5 -5 -6 -6 -6 -6 -6 -6 -7 -7 -7 -7 -7 -7 -7 -7 -7 -7 -7 -7 -7 -8 -8 -9 -9 -9 -9 -9 -9 -9 -9 -10 -10 -10 -10
0 0 -0 -0 -0 -1 -1 -1 -1 -1 -1 -1 -1 -2 -2 -2 -2 -2 -3 -3 -3 -3 -3 -3 -3 -3 -3 -4 -4 -4 -4 -4 -5 -5 -5 -5 -6 -6 -6 -6 -6 -7 -7 -7 -7 -7 -7 -7 -7 -7 -7 -7 -7 -7 -8 -8 -9 -9 -9 -9 -9 -9 -9 -9 -9 -10 -10 -10 -9
Height
1552 1551 1551 1551 1551 1551 1551 1550 1549 1549 1549 1549 1549 1548 1548 1547 1547 1546 1545 1545 1545 1544 1543 1543 1542 1541 1540 1540 1539 1538 1537 1537 1536 1535 1535 1534 1534 1533 1532 1531 1531 1530 1530 1529 1528 1528 1527 1527 1526 1526 1525 1525 1524 1523 1522 1521 1521 1520 1520 1519 1518 1517 1517 1516 1515 1515 1514 1513 1512
1551 1550 1550 1550 1550 1550 1550 1550 1549 1549 1549 1548 1548 1547 1547 1546 1546 1545 1545 1545 1544 1543 1543 1542 1541 1540 1540 1539 1538 1537 1536 1536 1535 1534 1534 1533 1533 1532 1531 1530 1530 1529 1528 1528 1527 1527 1526 1526 1525 1525 1524 1524 1523 1523 1522 1521 1520 1520 1519 1518 1517 1516 1516 1515 1514 1513 1513 1512 1511
1550 1550 1550 1550 1550 1549 1549 1549 1549 1549 1549 1548 1547 1547 1546 1545 1545 1545 1544 1544 1543 1543 1542 1541 1540 1539 1538 1537 1537 1536 1535 1535 1534 1534 1533 1533 1532 1531 1530 1530 1529 1528 1527 1527 1526 1526 1525 1525 1524 1524 1523 1523 1522 1521 1521 1520 1520 1519 1518 1517 1516 1515 1514 1514 1513 1512 1511 1510 1510
1549 1549 1548 1548 1548 1548 1548 1548 1548 1548 1548 1547 1547 1546 1545 1545 1544 1544 1544 1543 1542 1542 1541 1540 1539 1538 1537 1536 1536 1535 1535 1534 1533 1533 1532 1532 1531 1530 1529 1529 1528 1527 1527 1526 1525 1525 1524 1524 1523 1523 1522 1522 1521 1520 1520 1519 1519 1518 1517 1515 1515 1514 1513 1512 1512 1511 1511 1510 1510
1548 1547 1547 1546 1546 1546 1547 1547 1547 1547 1546 1546 1546 1545 1545 1544 1544 1543 1543 1542 1542 1541 1540 1539 1538 1537 1536 1535 1535 1534 1534 1533 1533 1532 1531 1531 1530 1529 1528 1528 1527 1526 1526 1525 1525 1524 1523 1523 1522 1521 1521 1520 1520 1519 1519 1518 1517 1516 1515 1514 1513 1513 1512 1511 1511 1511 1510 1510 1509
1546 1546 1545 1545 1545 1545 1546 1546 1545 1545 1545 1545 1545 1545 1544 1543 1543 1542 1542 1541 1540 1540 1539 1537 1536 1536 1535 1535 1534 1533 1533 1532 1532 1531 1530 1530 1529 1528 1527 1527 1526 1526 1525 1524 1524 1523 1522 1521 1521 1520 1520 1519 1519 1518 1517 1516 1516 1515 1515 1514 1513 1513 1512 1511 1511 1510 1510 1509 1508
1546 1545 1545 1545 1545 1545 1545 1545 1545 1545 1545 1544 1544 1543 1543 1542 1542 1541 1541 1540 1539 1538 1537 1537 1536 1535 1534 1533 1533 1532 1532 1531 1530 1530 1530 1529 1528 1527 1527 1526 1525 1525 1524 1523 1523 1522 1521 1520 1520 1520 1519 1519 1518 1518 1517 1516 1515 1515 1514 1514 1513 1513 1512 1511 1510 1510 1509 1508 1507
1545 1545 1545 1545 1545 1544 1544 1544 1543 1543 1543 1543 1543 1542 1541 1541 1540 1540 1540 1539 1538 1537 1537 1536 1535 1534 1533 1532 1532 1531 1531 1530 1530 1529 1529 1528 1527 1526 1526 1525 1525 1524 1523 1523 1522 1521 1521 1520 1520 1520 1519 1519 1518 1517 1516 1515 1515 1514 1514 1513 1513 1512 1511 1510 1509 1509 1508 1507 1506
1545 1545 1545 1545 1544 1544 1543 1543 1542 1542 1542 1542 1542 1541 1540 1540 1539 1539 1538 1538 1537 1536 1535 1535 1534 1533 1532 1531 1531 1530 1530 1529 1529 1528 1528 1527 1526 1526 1525 1525 1524 1524 1523 1522 1522 1521 1521 1520 1520 1519 1518 1518 1517 1516 1515 1515 1514 1513 1513 1512 1511 1511 1510 1509 1508 1507 1506 1505 1504
1545 1545 1544 1544 1543 1543 1542 1542 1542 1541 1541 1541 1541 1540 1539 1539 1538 1538 1537 1537 1536 1535 1535 1534 1533 1532 1531 1531 1530 1530 1529 1528 1528 1527 1526 1526 1525 1525 1524 1524 1523 1523 1522 1522 1521 1520 1520 1519 1519 1518 1517 1517 1516 1515 1514 1514 1513 1512 1512 1511 1510 1509 1508 1508 1507 1506 1505 1504 1503
1544 1544 1544 1543 1542 1542 1542 1542 1541 1541 1541 1540 1540 1540 1539 1538 1538 1537 1536 1535 1535 1535 1534 1533 1532 1531 1530 1530 1530 1529 1528 1527 1527 1526 1525 1525 1525 1524 1523 1523 1522 1522 1521 1521 1520 1519 1519 1518 1518 1517 1516 1515 1515 1514 1513 1513 1512 1511 1510 1510 1509 1508 1507 1506 1505 1505 1504 1502 1501
1543 1543 1543 1542 1542 1541 1541 1541 1541 1540 1540 1540 1539 1539 1538 1538 1537 1536 1535 1535 1534 1534 1533 1532 1531 1530 1530 1529 1529 1528 1527 1527 1526 1525 1525 1524 1524 1523 1522 1522 1521 1521 1521 1520 1519 1518 1518 1517 1516 1516 1515 1514 1514 1513 1512 1511 1511 1510 1509 1508 1508 1507 1506 1505 1504 1503 1502 1501 1500
1542 1542 1542 1541 1541 1540 1540 1540 1540 1539 1539 1539 1538 1538 1537 1537 1536 1535 1535 1534 1533 1533 1532 1531 1530 1530 1529 1529 1528 1527 1526 1525 1525 1524 1524 1523 1522 1522 1521 1521 1520 1520 1520 1519 1518 1517 1517 1516 1515 1515 1514 1513 1512 1511 1511 1510 1510 1509 1508 1507 1506 1505 1504 1503 1502 1501 1500 1499 1498
1542 1541 1541 1540 1540 1540 1540 1539 1539 1538 1538 1538 1537 1537 1536 1536 1535 1534 1533 1533 1532 1532 1531 1530 1530 1529 1528 1528 1527 1526 1525 1524 1524 1523 1523 1522 1522 1521 1520 1520 1520 1519 1518 1517 1517 1516 1516 1515 1514 1514 1513 1512 1511 1510 1510 1509 1508 1508 1507 1506 1505 1504 1503 1502 1501 1500 1499 1497 1496
1541 1541 1540 1540 1540 1539 1539 1538 1538 1537 1537 1537 1536 1535 1535 1535 1534 1533 1532 1531 1531 1530 1530 1529 1529 1528 1527 1526 1526 1525 1524 1523 1523 1522 1522 1521 1521 1520 1520 1519 1519 1518 1517 1516 1516 1515 1515 1514 1513 1513 1512 1511 1510 1510 1509 1508 1507 1506 1505 1505 1503 1502 1501 1500 1499 1498 1497 1496 1495
1541 1540 1540 1540 1539 1538 1538 1537 1537 1537 1536 1536 1535 1535 1534 1534 1533 1532 1531 1530 1530 1530 1529 1528 1527 1527 1526 1525 1524 1524 1523 1522 1522 1521 1521 1520 1520 1519 1519 1518 1517 1517 1516 1515 1515 1515 1514 1513 1512 1512 1511 1510 1509 1509 1508 1507 1506 1505 1504 1503 1502 1501 1500 1499 1498 1497 1495 1494 1493
1540 1540 1540 1539 1539 1538 1537 1537 1536 1536 1535 1535 1534 1534 1533 1532 1532 1531 1530 1530 1529 1528 1528 1527 1526 1525 1525 1524 1523 1522 1522 1521 1521 1520 1520 1519 1519 1518 1517 1517 1516 1516 1515 1515 1514 1514 1513 1512 1511 1510 1510 1509 1508 1507 1506 1505 1505 1504 1503 1502 1500 1500 1498 1497 1496 1495 1494 1493 1492
1540 1540 1539 1539 1538 1537 1537 1536 1535 1535 1534 1534 1533 1532 1532 1531 1530 1530 1529 1529 1528 1527 1526 1525 1525 1524 1524 1523 1522 1521 1521 1520 1520 1519 1519 1518 1518 1517 1516 1516 1515 1515 1514 1514 1513 1513 1512 1511 1510 1510 1509 1508 1507 1506 1505 1504 1503 1502 1501 1500 1499 1498 1497 1496 1495 1494 1493 1491 1490
1540 1539 1539 1538 1538 1537 1536 1535 1535 1534 1533 1533 1532 1531 1531 1530 1529 1529 1528 1528 1527 1526 1525 1525 1524 1523 1522 1522 1521 1520 1520 1519 1519 1518 1517 1517 1516 1516 1515 1515 1514 1514 1513 1513 1512 1512 1511 1510 1509 1509 1507 1506 1505 1505 1504 1503 1502 1501 1500 1499 1498 1497 1495 1495 1494 1492 1491 1490 1489
1539 1539 1538 1538 1537 1536 1535 1535 1534 1533 1532 1532 1531 1530 1530 1529 1528 1528 1527 1527 1526 1525 1524 1524 1523 1522 1521 1521 1520 1520 1519 1518 1517 1517 1516 1516 1515 1515 1515 1514 1513 1513 1512 1512 1511 1510 1510 1509 1508 1507 1506 1505 1504 1503 1502 1501 1500 1499 1498 1497 1496 1495 1494 1493 1492 1491 1490 1488 1487
1537 1537 1537 1537 1536 1535 1535 1534 1533 1532 1531 1531 1530 1529 1529 1528 1527 1527 1526 1525 1525 1524 1523 1523 1522 1521 1520 1520 1519 1519 1518 1517 1516 1515 1515 1515 1514 1514 1513 1513 1512 1511 1511 1511 1510 1510 1509 1508 1507 1505 1504 1504 1503 1502 1501 1500 1499 1497 1496 1495 1494 1493 1492 1491 1490 1489 1488 1487 1485
1536 1535 1535 1535 1535 1534 1534 1533 1532 1531 1530 1530 1529 1528 1528 1527 1526 1526 1525 1524 1524 1523 1522 1522 1521 1520 1520 1519 1518 1518 1517 1516 1515 1515 1514 1514 1513 1513 1512 1512 1511 1511 1510 1510 1509 1508 1507 1506 1505 1504 1503 1502 1501 1500 1499 1498 1497 1495 1494 1493 1492 1491 1490 1490 1489 1487 1486 1485 1484
1534 1534 1534 1534 1534 1533 1532 1532 1531 1530 1530 1529 1528 1528 1527 1526 1526 1525 1524 1524 1523 1522 1521 1520 1520 1519 1519 1518 1517 1516 1515 1515 1514 1514 1514 1513 1513 1512 1511 1511 1510 1510 1510 1508 1507 1506 1505 1505 1504 1503 1502 1501 1500 1499 1498 1496 1495 1494 1492 1491 1490 1489 1489 1488 1487 1486 1485 1484 1483
1533 1533 1532 1532 1532 1532 1531 1531 1530 1530 1529 1528 1527 1527 1526 1525 1525 1524 1524 1523 1522 1521 1520 1519 1518 1518 1518 1517 1516 1515 1515 1514 1514 1513 1513 1512 1512 1511 1511 1510 1510 1509 1508 1506 1505 1504 1504 1504 1503 1502 1501 1500 1499 1497 1495 1494 1493 1492 1490 1490 1488 1487 1487 1486 1485 1484 1483 1482 1481
1532 1531 1531 1531 1531 1531 1530 1530 1529 1529 1528 1527 1526 1526 1525 1525 1524 1523 1522 1521 1520 1519 1518 1518 1518 1517 1517 1516 1515 1514 1514 1513 1513 1512 1512 1511 1511 1510 1510 1509 1509 1508 1506 1504 1503 1503 1503 1502 1502 1501 1500 1498 1497 1495 1494 1492 1491 1490 1489 1488 1487 1486 1485 1484 1484 1483 1482 1481 1480
1531 1530 1530 1530 1530 1530 1529 1529 1528 1527 1527 1526 1525 1525 1525 1524 1523 1522 1521 1520 1519 1518 1518 1517 1517 1516 1515 1515 1514 1514 1513 1513 1512 1511 1511 1510 1510 1509 1509 1509 1508 1507 1505 1503 1502 1502 1501 1501 1500 1499 1498 1496 1495 1493 1492 1490 1489 1488 1487 1486 1485 1485 1484 1483 1482 1481 1480 1480 1478
1530 1530 1529 1529 1529 1529 1528 1528 1527 1526 1526 1525 1525 1524 1523 1523 1522 1520 1519 1518 1518 1517 1517 1517 1516 1515 1514 1514 1513 1513 1512 1512 1511 1510 1510 1509 1509 1508 1508 1507 1507 1506 1504 1502 1501 1501 1500 1500 1499 1497 1496 1495 1493 1492 1490 1489 1488 1487 1486 1485 1485 1484 1483 1482 1481 1480 1479 1478 1476
1529 1529 1528 1528 1528 1528 1527 1527 1526 1525 1525 1524 1524 1523 1522 1521 1520 1519 1518 1517 1517 1517 1516 1516 1515 1514 1514 1513 1512 1512 1511 1511 1510 1510 1509 1508 1508 1507 1507 1506 1506 1505 1502 1500 1500 1500 1499 1498 1497 1496 1495 1493 1492 1490 1489 1488 1486 1485 1485 1484 1484 1483 1482 1481 1480 1479 1477 1476 1474
1528 1527 1527 1527 1527 1526 1526 1526 1525 1525 1524 1523 1522 1521 1520 1519 1518 1517 1517 1517 1516 1516 1515 1515 1514 1513 1513 1512 1511 1511 1510 1510 1509 1509 1508 1507 1507 1506 1506 1505 1505 1504 1502 1499 1499 1499 1498 1497 1496 1495 1493 1492 1490 1489 1488 1486 1485 1484 1484 1483 1483 1482 1481 1480 1479 1478 1476 1474 1472
1526 1526 1526 1525 1525 1525 1525 1525 1524 1523 1522 1521 1520 1519 1518 1517 1517 1516 1516 1516 1516 1515 1515 1514 1513 1512 1511 1511 1510 1510 1510 1509 1509 1508 1507 1507 1506 1505 1505 1504 1504 1503 1501 1498 1498 1497 1497 1496 1495 1493 1492 1490 1489 1488 1487 1485 1484 1484 1483 1483 1482 1481 1480 1479 1478 1476 1475 1473 1471
1525 1525 1525 1524 1524 1524 1523 1523 1522 1522 1521 1520 1519 1518 1517 1516 1516 1516 1516 1515 1515 1514 1513 1513 1512 1511 1510 1510 1510 1509 1509 1508 1508 1507 1506 1506 1505 1504 1504 1503 1503 1502 1500 1497 1497 1496 1495 1495 1493 1492 1491 1489 1488 1487 1486 1484 1483 1483 1483 1482 1481 1480 1479 1478 1476 1475 1473 1471 1470
1524 1523 1523 1523 1523 1522 1522 1521 1521 1520 1519 1518 1517 1517 1516 1515 1515 1515 1515 1514 1514 1513 1512 1511 1511 1510 1510 1509 1509 1508 1508 1507 1507 1506 1505 1505 1504 1503 1503 1502 1502 1500 1498 1497 1496 1495 1495 1493 1492 1491 1490 1488 1487 1486 1485 1483 1483 1482 1482 1481 1480 1479 1478 1476 1475 1473 1472 1470 1468
1522 1522 1522 1521 1521 1520 1520 1520 1519 1518 1517 1517 1516 1516 1515 1515 1514 1514 1513 1513 1512 1512 1511 1510 1510 1509 1508 1508 1507 1507 1506 1506 1505 1505 1504 1503 1503 1502 1501 1501 1501 1499 1496 1496 1495 1494 1493 1492 1491 1490 1488 1487 1486 1485 1484 1483 1482 1482 1481 1480 1479 1478 1476 1475 1474 1472 1470 1469 1467
1520 1520 1520 1520 1520 1519 1519 1518 1517 1517 1516 1515 1515 1515 1514 1513 1513 1512 1512 1512 1511 1510 1510 1509 1508 1508 1507 1507 1506 1505 1505 1504 1504 1503 1503 1502 1502 1501 1500 1500 1500 1498 1495 1495 1494 1493 1492 1491 1490 1488 1487 1486 1485 1484 1482 1482 1481 1481 1480 1479 1477 1476 1475 1474 1472 1471 1469 1468 1466
1519 1519 1519 1518 1518 1518 1517 1516 1516 1515 1515 1515 1514 1513 1513 1512 1512 1511 1511 1510 1510 1509 1508 1508 1507 1507 1506 1505 1505 1504 1504 1503 1502 1501 1501 1500 1500 1500 1499 1499 1500 1497 1494 1494 1493 1492 1491 1490 1488 1487 1486 1485 1484 1482 1482 1481 1480 1479 1478 1477 1476 1475 1474 1473 1471 1470 1469 1467 1465
1518 1518 1517 1517 1516 1516 1515 1515 1515 1514 1514 1513 1513 1512 1511 1511 1510 1510 1510 1509 1508 1508 1507 1507 1506 1506 1505 1505 1504 1503 1503 1502 1501 1500 1500 1499 1499 1498 1498 1498 1498 1496 1493 1492 1491 1490 1490 1488 1487 1486 1485 1484 1483 1481 1481 1480 1479 1478 1477 1476 1475 1474 1473 1472 1470 1469 1468 1466 1465
1517 1516 1516 1515 1515 1515 1514 1514 1513 1513 1513 1512 1511 1511 1510 1510 1509 1509 1508 1508 1507 1507 1506 1506 1505 1505 1504 1504 1503 1502 1502 1501 1500 1500 1499 1498 1497 1497 1496 1496 1496 1495 1493 1490 1490 1489 1488 1487 1486 1485 1484 1483 1482 1481 1480 1479 1478 1477 1475 1475 1474 1473 1472 1471 1470 1468 1467 1466 1464
1515 1515 1515 1514 1514 1513 1513 1512 1512 1511 1511 1510 1510 1509 1509 1508 1508 1507 1507 1506 1506 1505 1505 1505 1504 1504 1503 1503 1502 1501 1500 1500 1500 1499 1498 1497 1496 1495 1495 1495 1494 1494 1493 1490 1489 1488 1487 1486 1485 1484 1483 1482 1481 1480 1479 1478 1477 1475 1475 1474 1473 1472 1471 1470 1469 1468 1466 1465 1464
1514 1513 1513 1513 1512 1512 1511 1511 1510 1510 1510 1509 1509 1508 1508 1507 1507 1506 1506 1505 1505 1504 1504 1503 1503 1503 1502 1501 1500 1500 1499 1499 1498 1498 1497 1496 1495 1494 1493 1493 1492 1492 1491 1489 1488 1487 1486 1485 1484 1483 1482 1481 1480 1479 1478 1477 1476 1475 1474 1473 1472 1471 1470 1469 1468 1466 1465 1464 1463
1512 1512 1511 1511 1511 1510 1510 1510 1509 1509 1508 1508 1507 1507 1506 1506 1505 1505 1505 1504 1504 1503 1502 1502 1502 1501 1501 1500 1499 1499 1498 1498 1497 1497 1496 1495 1494 1493 1491 1491 1491 1491 1490 1488 1487 1485 1485 1484 1483 1482 1481 1480 1479 1478 1477 1476 1475 1474 1473 1473 1471 1470 1469 1468 1466 1465 1465 1464 1463
1510 1510 1510 1510 1509 1509 1509 1508 1508 1507 1507 1506 1506 1505 1505 1504 1504 1503 1503 1503 1502 1502 1501 1501 1500 1500 1500 1499 1498 1498 1497 1497 1496 1496 1495 1494 1493 1492 1490 1490 1490 1490 1490 1488 1486 1484 1484 1483 1482 1481 1480 1479 1478 1477 1476 1475 1474 1473 1473 1472 1470 1469 1468 1466 1465 1465 1464 1463 1462
Wind_Speed
7 8 9 9 8 6 5 6 8 8 7 6 6 6 7 8 8 7 7 7 6 6 7 7 7 8 8 9 10 10 10 10 10 10 10 11 11 11 11 12 12 12 11 10 10 9 9 9 9 9 9 9 9 9 10 11 11 11 11 11 12 13 13 13 13 13 13 13 14
6 7 8 8 8 6 5 5 5 5 5 6 7 7 7 8 8 8 7 7 6 6 7 7 7 8 9 9 10 10 10 9 10 10 11 10 10 11 11 12 12 11 10 10 9 9 9 10 10 10 10 10 10 10 11 12 13 13 12 12 13 13 13 13 13 13 13 13 13
6 6 6 6 6 5 5 4 4 4 4 5 6 7 7 8 8 8 7 6 6 6 6 7 8 8 9 9 9 9 9 10 10 10 11 11 10 11 11 12 11 10 9 10 10 10 10 11 11 11 11 11 11 12 12 12 13 13 13 13 13 12 12 12 12 12 13 13 13
6 6 5 5 5 5 5 5 5 5 5 6 6 6 7 7 8 7 7 6 6 6 7 8 8 8 9 9 9 9 9 10 10 10 10 10 10 11 12 13 11 10 10 11 12 12 12 11 11 10 10 11 11 11 12 12 13 13 13 13 12 11 11 11 12 13 13 14 15
6 7 7 8 7 7 6 6 6 6 7 6 6 6 7 7 7 7 7 6 6 6 7 7 8 8 8 9 9 9 10 10 10 10 10 10 10 11 12 12 12 11 11 11 11 11 11 11 10 10 10 10 10 11 11 11 12 13 13 13 13 12 12 13 13 14 15 16 17
6 7 8 8 8 7 7 7 7 7 7 6 6 6 7 8 8 7 7 6 6 7 7 7 7 8 9 9 9 9 10 10 10 10 10 10 11 11 12 12 11 11 11 11 11 11 11 10 10 10 10 10 11 11 11 12 13 14 15 15 15 15 15 16 16 16 17 17 18
5 6 6 7 7 7 6 7 8 8 7 5 5 7 8 9 9 8 7 6 6 7 7 7 7 8 9 10 10 9 9 9 9 10 10 11 11 11 11 11 11 11 11 11 11 11 11 11 11 12 12 13 12 13 14 14 15 16 16 16 15 15 15 16 16 17 18 19 20
5 5 5 5 6 6 7 7 7 7 6 5 5 6 8 9 9 8 7 6 7 7 7 7 8 9 10 10 9 9 9 9 10 10 10 11 11 11 11 11 10 11 11 12 12 12 12 12 11 11 11 11 12 13 14 14 15 16 16 16 16 16 16 16 16 17 18 20 21
4 4 4 4 6 7 7 7 7 6 5 4 5 6 7 8 8 7 7 7 7 7 7 7 8 9 10 9 9 9 9 9 9 10 10 11 11 11 11 10 10 10 11 11 11 11 11 11 11 11 11 12 12 13 13 14 15 16 16 17 17 17 17 18 18 19 20 21 22
3 2 3 4 6 7 6 5 5 5 5 4 5 5 6 6 6 6 7 8 8 8 7 8 9 9 9 9 8 8 8 9 9 10 10 11 11 11 11 10 10 10 10 11 10 10 10 11 11 12 12 13 13 14 14 15 16 16 17 18 18 19 19 20 20 21 21 22 23
2 2 3 4 5 6 5 4 3 3 4 4 5 5 5 5 5 6 7 9 8 8 8 8 8 9 8 8 8 8 8 9 9 10 10 11 11 11 10 10 10 11 11 11 11 10 10 11 11 12 13 13 13 15 16 16 17 18 18 19 20 20 21 21 21 22 22 22 23
2 2 3 4 5 5 4 3 3 3 4 4 4 5 5 5 5 6 8 9 9 8 8 8 8 8 8 8 9 9 9 9 10 10 11 11 11 10 10 10 10 10 11 11 11 11 11 11 12 13 13 13 13 14 16 17 18 19 20 20 20 20 21 21 22 22 22 23 23
2 2 3 4 4 4 3 3 3 3 4 4 5 5 5 5 5 6 8 9 9 8 8 8 8 8 8 8 8 9 9 10 10 11 11 11 11 10 10 10 10 10 11 11 11 11 11 12 12 13 13 13 13 14 15 17 18 19 19 19 20 20 21 22 22 22 23 23 23
2 2 2 3 3 3 3 3 3 4 4 4 5 5 5 5 5 6 8 9 9 8 8 8 8 8 8 8 9 9 10 11 11 11 11 11 11 10 10 10 11 11 11 11 11 12 12 12 12 12 13 13 14 14 15 16 17 18 18 19 20 21 21 22 22 23 22 22 22
1 2 2 2 2 2 3 3 3 4 4 5 5 5 5 5 5 6 8 9 9 8 8 8 8 8 8 9 9 10 10 11 11 11 11 11 11 10 11 11 11 10 10 10 11 11 12 12 12 12 13 14 15 15 16 17 18 18 19 19 20 21 22 22 22 22 22 22 22
1 1 2 2 1 2 2 3 4 4 4 5 5 5 5 5 5 7 8 9 8 8 8 8 9 9 8 9 9 10 10 11 11 11 11 11 11 11 11 11 11 10 10 10 11 11 11 11 11 12 13 14 15 16 17 18 18 19 19 20 20 21 21 22 22 22 22 22 22
2 2 2 2 2 2 3 3 4 4 5 5 5 5 5 5 6 7 8 8 8 8 9 9 9 9 9 9 10 10 10 10 10 10 11 11 11 11 11 11 10 10 10 11 11 11 11 11 11 11 12 14 15 16 17 18 19 20 20 20 21 21 21 22 22 22 22 22 22
3 3 3 3 3 4 4 4 5 5 5 5 5 5 5 6 7 7 7 8 8 9 10 10 9 10 10 10 10 10 10 10 11 11 11 11 11 11 11 10 10 10 11 11 11 11 11 10 10 11 12 14 16 17 18 19 20 20 21 21 21 21 21 22 21 21 22 22 22
4 4 4 4 4 5 5 5 5 6 6 6 5 5 6 6 7 7 7 7 8 9 10 10 9 10 10 11 11 11 11 11 11 11 11 11 11 11 10 10 10 10 11 11 11 10 10 10 10 11 13 15 17 19 20 20 20 21 21 21 21 22 22 22 22 22 22 21 22
4 5 5 5 5 6 6 6 6 6 6 6 6 6 6 7 7 7 7 7 8 9 10 9 10 10 11 11 11 11 11 11 11 11 11 11 10 10 10 10 10 10 11 11 10 10 9 10 11 12 15 18 20 20 20 20 20 21 21 21 22 22 22 22 21 21 21 21 21
5 5 6 6 6 6 6 6 6 6 6 6 6 6 7 7 7 7 7 8 9 9 9 10 10 11 11 11 11 11 11 11 11 11 11 10 10 10 10 10 10 10 10 10 10 9 10 11 13 15 19 21 21 21 20 20 21 21 21 21 21 21 21 21 21 21 21 21 21
6 6 7 7 7 7 7 7 7 6 6 6 7 7 8 8 7 7 8 8 9 9 10 10 11 11 11 11 11 11 11 11 11 11 10 10 10 10 10 10 10 10 10 10 9 10 12 14 17 20 22 23 22 21 20 21 21 21 21 21 21 21 21 21 21 21 21 21 21
7 7 7 7 7 7 7 7 7 7 7 7 8 8 8 8 8 8 8 8 9 10 11 12 11 11 11 11 11 11 11 11 11 10 10 10 10 10 10 10 10 10 10 10 12 14 15 18 21 23 24 24 22 21 21 22 22 22 21 21 21 21 21 21 21 21 21 20 20
8 8 8 8 8 8 8 8 7 7 7 8 8 8 8 8 8 8 8 9 10 12 13 12 11 11 11 11 11 11 11 11 10 10 10 9 9 9 9 9 10 10 10 13 16 18 20 22 23 24 25 25 24 24 24 24 23 22 22 21 21 21 21 21 20 20 20 20 20
9 9 8 8 8 8 8 8 8 8 8 9 9 9 9 9 8 9 9 11 13 14 13 12 11 11 11 11 11 11 10 10 10 10 10 9 9 9 9 9 10 10 11 15 18 20 22 23 23 24 25 26 27 26 26 25 24 23 22 21 21 21 21 20 20 20 20 19 19
9 9 9 9 9 9 8 8 8 8 9 9 9 9 9 9 9 10 12 14 15 13 12 11 11 11 11 11 11 10 10 10 10 10 9 9 9 8 8 9 10 10 12 16 19 21 22 23 24 24 26 27 27 27 27 25 24 23 22 21 20 20 20 20 20 20 20 19 19
10 9 9 9 9 9 9 9 9 9 9 9 9 9 9 10 11 13 15 15 13 11 11 11 10 11 11 11 10 10 10 10 10 9 9 9 8 8 9 9 10 12 15 18 20 21 22 23 24 25 27 27 27 27 26 25 24 23 21 20 19 19 19 19 20 20 20 20 20
10 10 10 10 10 10 10 10 10 10 10 10 10 10 11 12 15 16 15 12 11 11 11 10 10 10 10 10 10 10 10 10 10 9 9 9 8 8 8 9 10 12 15 18 20 21 22 23 25 26 27 28 27 26 25 24 24 22 20 18 18 18 19 19 20 20 21 21 21
11 11 10 10 10 10 11 11 11 11 10 10 11 12 14 16 16 14 12 11 11 11 10 10 10 10 10 10 10 10 10 10 10 9 9 8 8 8 9 10 10 11 14 18 20 22 23 24 26 27 28 27 26 25 24 23 22 21 19 18 18 18 19 19 20 20 20 20 20
11 11 11 11 11 11 11 11 11 11 11 11 13 15 16 16 14 12 11 11 11 11 10 10 10 10 10 10 10 10 10 9 9 8 8 8 8 9 10 11 10 11 14 19 21 22 24 25 27 28 28 27 25 23 23 22 21 19 18 18 18 19 19 20 20 20 20 20 20
11 11 11 11 12 12 12 12 12 12 12 13 15 16 15 13 12 11 11 11 11 11 10 10 11 11 11 10 10 9 9 9 8 8 8 8 9 9 10 11 11 11 15 19 21 23 24 26 27 27 27 25 23 22 22 21 20 18 17 17 18 18 19 19 19 19 19 19 20
12 12 12 12 12 12 12 12 12 13 14 15 15 14 13 12 12 12 12 12 11 11 11 11 11 11 10 10 9 9 9 8 8 8 8 8 9 10 10 10 11 13 16 19 21 22 24 26 27 26 25 23 22 21 21 20 18 17 17 17 17 18 18 18 18 18 19 19 19
12 12 13 13 13 13 12 12 13 15 16 15 14 14 13 12 12 12 12 12 12 11 11 11 11 10 10 9 9 8 8 8 8 8 8 9 9 9 10 10 10 13 17 18 20 22 24 25 26 25 23 22 21 20 20 19 17 16 17 17 17 17 17 17 17 18 18 19 19
13 13 13 13 13 13 13 13 14 15 15 15 14 13 13 13 13 12 12 12 12 11 11 11 11 10 9 9 8 8 8 8 8 8 9 8 8 9 9 9 9 12 17 19 21 23 24 25 24 23 21 20 20 20 19 18 17 17 17 17 17 17 17 17 17 18 18 19 19
14 14 14 14 14 14 14 14 14 14 14 14 14 13 13 13 13 13 13 12 12 12 11 11 11 10 10 9 8 8 8 8 8 8 9 9 8 9 9 8 8 12 17 20 22 23 23 23 22 21 20 19 19 20 19 18 18 18 18 18 17 16 16 17 17 17 17 18 18
14 14 14 14 15 15 15 15 15 15 14 14 14 14 13 13 13 13 13 12 12 12 11 11 10 10 10 9 9 8 8 8 9 8 9 9 9 9 8 8 8 12 18 21 22 23 22 21 20 19 19 19 19 19 19 19 19 19 19 18 17 16 16 17 17 17 17 17 17
14 14 14 15 15 16 15 15 15 15 14 14 14 14 14 14 13 13 13 12 12 12 11 11 10 10 10 9 9 8 8 9 9 9 9 10 10 9 8 9 9 12 16 20 22 22 21 20 19 18 18 18 19 19 19 20 20 20 19 17 16 16 16 17 17 16 16 16 17
14 14 14 15 15 16 15 15 15 15 15 14 14 14 14 14 13 13 12 12 12 11 11 11 11 10 10 9 9 9 9 10 10 9 9 10 10 10 10 12 12 12 13 18 20 21 20 19 18 18 18 18 19 19 20 20 20 19 18 17 16 16 16 16 16 16 16 16 17
13 13 13 14 15 15 15 15 15 15 15 14 14 14 14 13 13 13 12 11 11 12 12 11 11 10 10 9 9 9 10 10 9 9 9 9 10 12 14 15 15 13 12 16 19 20 19 18 18 17 17 18 18 19 19 20 19 18 17 16 16 17 17 17 16 16 16 16 16
14 14 14 15 15 15 15 15 15 15 14 14 14 14 13 13 13 13 12 12 12 12 12 11 11 10 10 10 10 10 10 9 8 8 8 9 11 14 17 17 16 13 12 15 18 19 19 18 17 17 17 17 18 18 19 19 19 17 16 16 17 18 19 18 17 16 15 15 15
17 17 16 16 16 15 15 15 15 14 14 14 14 14 14 13 13 13 13 12 12 12 12 11 11 10 10 10 10 10 9 9 8 8 9 9 11 13 15 16 15 12 11 13 17 19 18 17 17 17 17 17 17 18 18 18 17 16 16 17 18 19 20 19 17 16 15 15 15
Wind_Direction
6 5 8 15 25 27 16 3 8 14 17 8 5 1 357 355 352 348 344 340 333 327 325 324 325 325 325 326 326 327 326 326 324 323 323 322 320 318 316 312 312 312 313 312 314 315 314 312 310 308 305 301 299 298 297 296 299 304 306 304 302 301 301 300 300 300 299 299 299
16 13 14 18 25 30 27 17 12 11 7 0 1 0 356 353 351 348 343 337 330 324 322 322 325 325 326 326 327 327 327 326 325 324 324 323 322 319 315 312 312 314 315 313 315 315 313 310 307 305 303 300 297 297 298 300 303 304 303 301 300 300 300 299 299 299 299 299 300
20 25 27 29 31 32 32 27 19 10 3 359 0 358 354 351 349 346 341 333 325 321 321 322 324 326 327 328 329 328 327 326 325 324 324 323 321 319 316 314 314 315 315 311 312 312 311 310 309 307 304 299 297 296 298 299 300 299 297 295 295 296 297 299 301 303 305 306 306
15 20 26 29 33 34 31 25 18 9 3 2 1 358 354 350 347 343 337 329 324 321 320 321 323 326 328 329 329 328 328 326 325 324 324 323 321 317 313 313 316 316 313 309 309 309 310 310 310 307 301 296 295 295 296 297 297 295 293 292 293 296 301 305 309 311 312 311 310
8 10 16 22 28 29 26 20 14 8 5 3 1 357 353 350 346 340 334 327 323 320 319 320 322 326 328 330 329 328 327 325 325 324 324 323 320 318 316 315 316 315 313 311 310 309 307 306 304 300 297 293 292 293 295 297 298 298 298 301 305 310 313 314 315 314 312 310 307
12 15 19 23 26 26 21 14 11 9 7 2 357 353 350 349 346 341 334 327 321 318 319 320 323 325 328 329 329 328 327 326 325 324 322 321 319 316 315 316 317 316 312 309 306 304 303 304 306 306 306 304 303 303 303 305 305 307 310 315 317 318 316 314 313 312 309 306 304
28 31 29 25 23 20 15 10 8 8 6 1 350 344 344 347 348 344 335 326 321 320 321 322 323 324 325 327 328 327 327 326 325 323 322 319 317 316 315 315 316 314 311 308 307 307 309 313 316 316 315 314 313 313 312 312 312 313 314 316 315 315 313 311 310 309 307 304 304
43 44 36 25 17 13 10 6 4 5 4 356 342 335 337 343 347 346 339 329 324 322 321 321 321 321 323 326 327 327 326 325 323 322 321 318 317 316 315 315 314 313 311 310 311 313 316 317 317 316 314 313 312 312 313 313 311 309 308 307 307 307 308 309 309 308 305 303 305
61 54 35 21 11 10 9 6 1 1 1 351 336 329 329 334 341 343 338 330 325 323 321 319 318 320 322 324 325 324 324 323 322 321 320 318 318 317 317 316 314 313 313 313 313 313 314 313 310 308 307 306 306 307 308 309 306 303 302 302 303 305 306 307 307 306 305 304 303
84 61 34 18 9 11 14 13 4 359 356 347 335 326 322 323 328 332 333 331 328 324 320 317 317 319 321 323 323 323 322 322 321 320 319 318 318 317 316 315 314 314 314 314 312 312 312 311 308 304 303 302 302 303 304 304 304 303 302 302 302 303 304 304 305 306 305 304 303
80 47 23 11 8 13 20 21 9 356 348 341 335 328 322 318 317 321 328 331 331 326 320 317 317 319 321 321 320 320 320 320 320 318 317 317 316 315 315 314 314 313 313 313 313 312 312 311 310 307 305 304 302 300 300 302 302 302 302 302 303 303 304 304 305 305 305 305 304
50 29 13 5 10 17 23 19 4 349 341 336 331 328 323 317 311 316 325 331 330 325 320 318 318 319 320 318 318 319 318 318 317 317 316 315 314 314 313 314 314 313 313 312 312 311 309 308 307 306 307 308 306 303 301 302 303 303 303 304 304 305 305 305 305 306 305 305 304
20 14 8 7 14 20 19 10 356 346 339 333 329 326 323 316 310 315 323 328 328 325 321 319 318 319 318 316 316 317 316 315 315 315 314 312 312 312 312 313 314 314 313 311 310 309 309 308 306 306 307 308 309 309 308 307 307 306 306 307 307 307 307 307 307 306 305 305 303
357 356 1 8 16 19 12 2 352 344 337 331 327 325 322 317 312 312 318 325 327 326 322 320 320 319 317 315 315 314 313 312 312 313 312 311 310 311 311 312 312 312 312 310 310 311 311 310 309 308 309 311 313 314 313 312 311 310 310 309 309 308 308 308 307 307 306 305 304
324 335 346 359 4 5 1 357 349 342 335 330 325 322 320 317 311 310 315 322 326 325 321 319 319 317 315 314 313 312 311 311 311 310 310 310 310 310 310 310 311 310 310 310 311 312 313 312 311 311 312 313 315 315 314 314 312 311 310 309 308 308 308 308 308 308 307 306 306
263 290 313 321 324 333 342 347 344 338 332 327 323 321 319 316 311 309 313 319 321 320 318 317 318 317 314 314 312 312 311 311 310 309 309 309 309 309 309 309 309 309 309 310 310 311 311 310 309 310 312 315 316 316 316 315 313 311 310 309 308 308 308 308 309 308 308 307 306
254 269 284 293 298 308 320 330 333 331 327 323 321 319 316 314 311 310 312 313 314 314 315 318 319 318 314 313 312 312 311 310 309 308 308 307 307 307 307 307 307 307 307 308 309 309 308 308 308 311 314 316 318 318 317 315 314 312 311 309 308 308 308 308 309 308 308 307 307
261 272 280 286 293 299 305 314 320 322 320 318 317 315 313 311 312 311 309 307 307 311 315 317 317 315 313 312 312 311 310 309 308 307 306 305 305 305 305 305 305 305 306 307 307 306 305 306 309 313 317 319 319 318 317 315 313 312 310 309 308 308 308 308 308 308 308 308 308
265 273 279 285 291 294 299 304 311 313 313 312 311 312 311 310 310 309 306 302 304 309 314 315 313 311 311 311 311 310 309 308 308 306 304 303 303 303 304 304 303 304 305 305 304 302 301 303 309 313 316 318 318 317 316 315 313 311 310 309 308 308 307 307 307 307 307 308 308
263 271 278 283 287 291 294 299 304 306 307 307 307 308 309 308 306 304 302 300 301 307 311 311 310 309 309 309 309 309 308 307 307 306 304 302 301 301 302 302 303 303 304 304 301 298 296 298 304 308 310 313 316 317 317 315 314 312 311 310 309 308 307 307 307 307 307 307 307
259 267 275 279 282 285 289 294 298 301 303 304 305 306 306 305 301 298 296 298 301 306 308 308 307 307 308 308 308 308 307 306 306 306 305 302 300 300 301 302 303 304 305 304 300 295 291 290 295 301 306 312 316 318 318 316 314 313 312 311 309 308 308 307 307 307 307 307 307
257 265 272 276 277 279 284 289 293 298 301 304 305 305 304 301 297 293 293 296 300 303 304 305 306 307 307 307 307 306 306 305 306 307 306 303 300 300 300 302 304 306 305 303 295 286 282 284 290 298 305 313 318 319 318 316 315 314 313 312 310 309 308 308 307 307 307 307 307
257 264 269 272 275 278 281 286 291 296 300 304 306 305 302 298 294 291 291 293 296 298 301 305 307 309 308 306 305 305 306 307 307 308 306 303 301 300 300 302 305 307 305 295 281 277 280 287 293 300 308 315 319 319 318 317 316 315 314 313 311 311 310 309 308 308 308 308 308
257 262 266 270 274 279 283 286 290 295 299 303 305 303 300 296 292 291 290 291 293 297 303 308 310 309 306 303 302 303 305 306 307 306 304 301 299 298 299 302 305 308 301 286 280 280 285 291 297 304 311 316 319 319 319 319 319 318 316 314 313 311 310 310 310 309 309 310 310
257 260 264 267 272 277 282 285 289 293 298 301 302 301 298 295 293 290 289 290 295 301 307 310 308 304 301 300 301 303 304 303 303 303 302 301 299 298 299 302 306 307 298 286 285 287 290 295 301 308 314 318 320 321 322 322 322 321 320 318 315 312 311 312 312 311 311 312 312
255 258 262 268 273 277 280 284 287 292 296 298 299 299 297 295 292 290 291 295 300 305 307 306 302 297 296 300 302 304 303 302 299 299 299 299 298 298 300 304 308 304 294 288 289 291 294 298 305 311 317 320 322 323 324 324 325 324 323 320 316 313 312 312 312 313 313 314 314
254 258 264 271 275 277 279 282 287 291 295 296 297 297 296 294 292 294 297 301 304 304 302 298 295 294 296 300 303 303 302 300 296 295 295 294 294 297 301 305 310 304 295 291 292 294 296 301 307 314 319 322 324 324 325 326 327 327 325 320 316 313 312 312 313 314 314 315 315
255 260 266 269 272 275 278 283 288 292 294 294 294 294 294 295 298 301 303 302 300 297 295 293 292 294 297 300 301 301 300 298 295 293 291 291 291 295 300 305 311 306 298 293 292 294 297 302 309 316 321 323 324 325 326 328 329 329 326 319 315 314 314 313 314 315 315 314 314
258 262 265 267 270 274 279 285 290 292 292 291 292 293 296 300 304 305 302 297 294 292 291 291 292 294 295 298 299 300 300 298 295 292 289 288 290 294 300 305 310 304 295 290 290 292 297 303 310 316 320 323 325 326 327 329 331 329 324 316 315 315 315 315 315 315 315 316 315
260 262 264 266 270 275 279 284 288 289 288 288 290 295 300 304 305 301 295 293 291 290 288 289 291 292 293 295 297 299 299 298 295 292 288 287 290 294 300 304 308 300 290 287 289 293 298 304 310 316 320 322 324 326 328 330 333 330 322 316 315 315 315 315 315 316 316 317 316
260 262 264 266 270 274 278 281 285 285 285 287 291 297 302 303 298 294 291 292 289 287 286 288 290 290 291 292 294 296 298 298 295 292 289 288 291 295 300 304 308 296 285 287 291 295 300 304 310 315 319 322 325 326 329 332 334 329 320 316 315 315 315 316 316 317 317 318 318
261 262 264 266 269 273 276 279 281 281 283 286 293 298 301 298 295 293 290 289 286 285 286 289 289 289 289 289 290 293 295 296 294 291 289 290 293 296 300 305 310 297 288 291 294 297 300 304 310 314 319 322 325 328 331 335 333 325 317 315 314 315 316 317 317 318 318 319 319
262 262 263 265 267 271 274 276 277 279 283 288 294 296 296 295 293 292 290 287 283 282 285 288 289 288 287 287 288 290 291 291 290 289 289 291 293 296 300 306 311 300 293 294 294 296 300 305 311 315 320 323 326 330 334 336 330 323 318 317 316 317 317 318 318 319 320 321 322
262 262 262 264 266 269 273 274 275 279 285 290 291 292 291 291 291 289 286 284 281 280 282 285 286 284 283 283 283 286 288 288 288 288 289 291 293 295 299 306 309 299 293 293 294 296 301 307 312 317 321 325 328 333 337 336 331 325 322 322 321 321 320 320 320 320 321 323 324
264 263 262 263 265 268 271 273 276 281 284 286 286 287 288 287 288 287 285 282 278 278 280 282 282 282 281 280 280 283 286 288 289 289 289 290 293 295 299 305 305 297 292 293 294 299 305 311 316 320 324 327 331 335 338 336 332 329 328 328 327 325 323 322 322 322 322 323 324
266 264 263 263 265 268 271 275 278 281 282 282 283 285 286 287 286 286 283 279 276 276 278 280 280 280 279 278 278 281 286 291 291 289 287 289 292 295 298 303 302 298 295 295 298 304 310 315 320 323 326 329 333 337 338 336 334 333 334 333 330 326 324 323 323 322 322 321 322
267 265 264 265 267 270 273 276 278 279 279 279 281 283 286 286 286 284 280 276 274 274 276 278 279 278 277 276 276 279 284 289 289 286 284 286 290 293 296 299 302 301 299 298 302 308 314 319 322 325 328 331 334 337 338 337 336 337 337 335 331 327 324 324 323 322 321 320 319
268 265 263 265 269 271 273 274 275 276 277 278 280 283 284 285 284 281 277 273 271 272 274 276 278 277 276 274 275 278 284 288 287 284 282 284 287 289 293 298 305 307 302 298 302 308 315 320 324 326 329 332 335 337 338 338 338 339 339 336 331 327 325 325 324 323 322 321 319
265 262 263 266 268 270 271 272 273 275 276 278 280 282 283 284 282 279 274 270 269 271 273 274 275 275 274 273 274 278 283 287 286 284 282 282 283 288 294 302 313 314 305 298 301 308 314 320 324 327 330 333 335 337 338 339 340 340 338 334 329 326 326 327 327 325 323 322 321
262 263 265 268 269 269 270 271 272 274 275 277 279 280 281 281 279 275 271 269 268 269 270 271 272 273 273 273 275 278 280 283 282 282 282 282 283 290 298 308 317 319 309 298 301 306 313 319 323 327 330 333 336 337 338 340 340 339 335 331 327 327 330 332 331 328 325 324 323
266 269 271 272 272 272 271 271 272 273 274 275 277 279 279 277 274 272 270 269 268 268 269 270 270 271 272 273 276 277 277 275 275 278 282 283 284 290 298 307 314 316 307 296 298 305 313 320 324 327 330 333 336 338 339 340 340 336 331 328 329 332 335 337 335 331 327 325 324